Weather History for KVLD - March, 2014

Change the Weather History Date:

Tuesday, March 11, 2014

  Actual Average Record
Temperature  
Mean Temperature 67 °F 59 °F  
Max Temperature 84 °F 72 °F - ()
Min Temperature 50 °F 47 °F - ()
Degree Days  
Heating Degree Days 0 7  
Month to date heating degree days 89 82  
Since 1 July heating degree days 1140 1462  
Cooling Degree Days 2 1  
Month to date cooling degree days 4 11  
Year to date cooling degree days 36 21  
Growing Degree Days 17 (Base 50)    
Moisture  
Dew Point 51 °F    
Average Humidity 60    
Maximum Humidity 89    
Minimum Humidity 31    
Precipitation  
Precipitation 0.00 in 0.16 in - ()
Month to date precipitation 1.86  
Year to date precipitation 10.59  
Sea Level Pressure  
Sea Level Pressure 29.92 in    
Wind  
Wind Speed 3 mph (SSW)    
Max Wind Speed 13 mph    
Max Gust Speed 16 mph    
Visibility 9 miles    
Events Rain    
T = Trace of Precipitation, MM = Missing Value Source: NWS Daily Summary

Daily Weather History Graph

Daily Weather History Graph

Search for Another Location

Airport or City:

Trip Planner

Search our weather history database for the weather conditions in past years. The results will help you decide how hot, cold, wet, or windy it might be!

Date:

Astronomy

Mar. 11, 2014 Rise Set
Actual Time 7:47 AM EDT 7:38 PM EDT
Civil Twilight 7:23 AM EDT 8:02 PM EDT
Nautical Twilight 6:55 AM EDT 8:30 PM EDT
Astronomical Twilight 6:27 AM EDT 8:58 PM EDT
Moon 3:27 PM EDT (3/11) 4:26 AM EDT (3/11)
Length of Visible Light 12h 38m
Length of Day
11h 50m
Waxing Gibbous, 78% of the Moon is Illuminated
Mar 11
Waxing Gibbous
Mar 16
Full
Mar 23
Last Quarter
Mar 30
New
Apr 7
First Quarter

Hourly Weather History & Observations

Time (EDT) Temp. Heat Index Dew Point Humidity Pressure Visibility Wind Dir Wind Speed Gust Speed Precip Events Conditions
12:53 AM 57.0 °F - 48.9 °F 74% 30.00 in 10.0 mi Calm Calm - N/A   Clear
1:53 AM 55.0 °F - 50.0 °F 83% 29.98 in 10.0 mi South 3.5 mph - N/A   Clear
2:53 AM 54.0 °F - 48.0 °F 80% 29.98 in 7.0 mi Calm Calm - N/A   Clear
3:53 AM 52.0 °F - 48.0 °F 86% 29.96 in 5.0 mi Calm Calm - N/A   Clear
4:53 AM 53.1 °F - 48.0 °F 83% 29.96 in 7.0 mi Calm Calm - N/A   Clear
5:53 AM 53.1 °F - 48.0 °F 83% 29.96 in 5.0 mi Calm Calm - N/A   Haze
6:53 AM 52.0 °F - 48.0 °F 86% 29.95 in 4.0 mi SSE 3.5 mph - N/A   Clear
7:53 AM 50.0 °F - 45.0 °F 83% 29.96 in 7.0 mi Calm Calm - N/A   Clear
8:53 AM 57.9 °F - 53.1 °F 84% 29.97 in 7.0 mi Calm Calm - N/A   Clear
9:53 AM 66.0 °F - 55.9 °F 70% 29.97 in 10.0 mi Calm Calm - N/A   Clear
10:53 AM 73.0 °F - 54.0 °F 51% 29.97 in 10.0 mi Calm Calm - N/A   Clear
11:53 AM 75.9 °F - 54.0 °F 46% 29.96 in 10.0 mi Variable 3.5 mph - N/A   Scattered Clouds
12:53 PM 78.1 °F - 54.0 °F 43% 29.94 in 10.0 mi Variable 3.5 mph - N/A   Mostly Cloudy
1:53 PM 81.0 °F 80.4 °F 53.1 °F 38% 29.92 in 10.0 mi Variable 5.8 mph - N/A   Scattered Clouds
2:53 PM 84.0 °F - 51.1 °F 32% 29.88 in 10.0 mi SW 6.9 mph - N/A   Scattered Clouds
3:53 PM 82.0 °F - 48.9 °F 31% 29.86 in 10.0 mi South 5.8 mph - N/A   Clear
4:53 PM 82.9 °F - 48.9 °F 31% 29.84 in 10.0 mi SSW 8.1 mph - N/A   Clear
5:53 PM 80.1 °F - 51.1 °F 36% 29.83 in 10.0 mi Variable 3.5 mph - N/A   Clear
6:53 PM 77.0 °F - 52.0 °F 42% 29.83 in 10.0 mi SSW 6.9 mph - N/A   Scattered Clouds
7:53 PM 73.0 °F - 51.1 °F 46% 29.84 in 10.0 mi South 5.8 mph - N/A   Mostly Cloudy
8:53 PM 69.1 °F - 50.0 °F 51% 29.86 in 10.0 mi SSW 4.6 mph - N/A   Partly Cloudy
9:53 PM 68.0 °F - 51.1 °F 55% 29.86 in 10.0 mi Variable 3.5 mph - N/A   Clear
10:53 PM 66.0 °F - 51.1 °F 59% 29.86 in 10.0 mi SSW 4.6 mph - N/A   Mostly Cloudy
11:53 PM 64.9 °F - 55.0 °F 70% 29.84 in 10.0 mi Calm Calm - 0.00 in Rain Light Rain